{"data":{"norad_id":65584,"epoch":"2026-05-25T02:17:31.178400Z","epoch_age_seconds":56860,"freshness":"FRESH","line1":"1 65584U 25203V   26145.09549975  .00000092  00000+0  72267-4 0  9994","line2":"2 65584  81.3038  32.0980 0006421 247.6176 112.4300 13.83797653 35507","mean_motion":13.83797653,"eccentricity":0.0006421,"inclination_deg":81.3038,"raan_deg":32.098,"arg_perigee_deg":247.6176,"mean_anomaly_deg":112.43,"bstar":7.2267e-5,"rev_number":3550,"period_min":104.06145702575,"perigee_km":945.74207144809,"apogee_km":955.15343999139,"semimajor_km":7328.5847557197,"source":"CELESTRAK","updated_at":"2026-05-25T13:38:25.172538Z"}}